• Join FlightAware (Why Join?)
  • Login
  • US Flag 
02:35AM EDT


 

Airport Tracker/Info


-or-


 

Live Flight TrackerFlight Track Log ✈ AWE1940 ✈ 16-Jun-2013 ✈ KBHM - KCLT

Flight Track Log - Related Links

Times and Time Zones

All times are in EDT time to prevent confusion due to time zone crossing. See the AWE1940 flight status page for this flight to view local times or setup timezone preferences in your user account.

Time Position Orientation Groundspeed Altitude Reporting Facility
EDT Latitude Longitude Course Direction KTS MPH feet Rate Location/Type
11:56PM 33.5683 -86.7489 60° Northeast 163 188 1,300  Level Atlanta Center
11:57PM 33.5814 -86.7217 60° Northeast 171 197 2,100 1,680 Climbing Atlanta Center
11:57PM 33.5953 -86.6597 75° East 260 299 3,400 2,640 Climbing Atlanta Center
11:58PM 33.5950 -86.5675 90° East 272 313 6,700 3,300 Climbing Atlanta Center
11:59PM 33.5992 -86.4706 87° East 284 327 10,100 2,280 Climbing Atlanta Center
12:00AM 33.6283 -86.3689 71° East 302 348 11,300 1,620 Climbing Atlanta Center
12:01AM 33.6703 -86.2403 69° East 351 404 13,400 2,340 Climbing Atlanta Center
12:02AM 33.7142 -86.1142 67° East 385 443 16,000 2,460 Climbing Atlanta Center
12:03AM 33.7644 -85.9803 66° East 410 472 18,400 2,640 Climbing Atlanta Center
12:04AM 33.8100 -85.8564 66° East 419 482 21,300 1,740 Climbing Atlanta Center
12:05AM 33.8556 -85.7372 65° Northeast 419 482 21,900 1,140 Climbing Atlanta Center
12:06AM 33.9161 -85.5808 65° Northeast 439 505 23,600 1,620 Climbing Atlanta Center
12:07AM 33.9722 -85.4314 66° East 464 534 25,200 1,500 Climbing Atlanta Center
12:08AM 34.0300 -85.2819 65° Northeast 485 558 26,700 1,980 Climbing Atlanta Center
12:09AM 34.0878 -85.1350 65° Northeast 490 564 29,200 2,280 Climbing Atlanta Center
12:10AM 34.1267 -84.9847 73° East 476 548 31,300 1,860 Climbing Atlanta Center
12:11AM 34.1444 -84.8344 82° East 452 520 33,000 1,320 Climbing Atlanta Center
12:12AM 34.1619 -84.6864 82° East 447 514 34,000 720 Climbing Atlanta Center
12:13AM 34.1814 -84.5511 80° East 453 521 34,500 480 Climbing Atlanta Center
12:14AM 34.1967 -84.3928 83° East 462 532 35,000 240 Climbing Atlanta Center
12:15AM 34.2156 -84.2422 81° East 462 532 35,000  Level Atlanta Center
12:16AM 34.2347 -84.0714 82° East 462 532 35,000  Level Atlanta Center
12:17AM 34.2514 -83.9131 83° East 469 540 35,000  Level Atlanta Center
12:18AM 34.2781 -83.7597 78° East 464 534 35,000  Level Atlanta Center
12:19AM 34.3278 -83.6136 68° East 464 534 35,000  Level Atlanta Center
12:20AM 34.3794 -83.4650 67° East 469 540 35,000 -60 Level Atlanta Center
12:21AM 34.4286 -83.3136 68° East 475 547 34,900  Descending Atlanta Center
12:22AM 34.4800 -83.1644 67° East 475 547 35,000  Climbing Atlanta Center
12:23AM 34.5308 -83.0150 68° East 475 547 35,000 -240 Level Atlanta Center
12:24AM 34.5839 -82.8706 66° East 475 547 34,600 -900 Descending Atlanta Center
12:25AM 34.6283 -82.7311 69° East 475 547 33,300 -1,620 Descending Atlanta Center
12:26AM 34.6789 -82.5889 67° East 470 541 31,400 -1,920 Descending Atlanta Center
12:27AM 34.7292 -82.4364 68° East 470 541 29,500 -1,920 Descending Atlanta Center
12:28AM 34.7814 -82.2836 67° East 476 548 27,600 -1,980 Descending Atlanta Center
12:29AM 34.8333 -82.1258 68° East 481 554 25,600 -2,040 Descending Atlanta Center
12:30AM 34.8828 -81.9650 69° East 486 559 23,600 -2,100 Descending Atlanta Center
12:31AM 34.9303 -81.8169 69° East 476 548 21,500 -2,100 Descending Atlanta Center
12:32AM 34.9858 -81.6633 66° East 463 533 19,500 -1,980 Descending Atlanta Center
12:33AM 35.0331 -81.5122 69° East 463 533 17,600 -1,980 Descending Atlanta Center
12:34AM 35.0781 -81.3739 68° East 449 517 15,600 -1,860 Descending Atlanta Center
12:35AM 35.1189 -81.2406 69° East 430 495 13,900 -1,380 Descending Atlanta Center
12:36AM 35.1814 -81.1444 51° Northeast 379 436 12,900 -1,500 Descending Atlanta Center
12:37AM 35.2550 -81.0883 32° Northeast 326 375 11,000 -1,980 Descending Atlanta Center
12:38AM 35.3097 -81.0153 47° Northeast 306 352 9,000 -2,400 Descending Atlanta Center
12:39AM 35.3642 -80.9469 46° Northeast 286 329 6,200 -2,100 Descending Atlanta Center
12:40AM 35.4103 -80.8739 52° Northeast 275 316 4,800 -1,560 Descending Atlanta Center
12:41AM 35.3708 -80.8017 124° Southeast 232 267 3,000 -900 Descending Atlanta Center
12:42AM 35.3147 -80.8039 182° South 211 243 3,000 -300 Level Atlanta Center
12:43AM 35.2825 -80.8533 231° Southwest 178 205 2,400 -660 Descending Atlanta Center
12:44AM 35.2542 -80.8875 225° Southwest 125 144 1,700 -720 Descending Atlanta Center
12:45AM 35.2322 -80.9214 232° Southwest 122 140 1,000 -720 Descending Atlanta Center
12:47AM 35.2000 -80.9333 180° South  Level FlightAware Approximate
12:54AM 35.2137 -80.9491 180° South  Level Estimated